Starlink 30446

operational
NORAD ID: 57872 Int'l Des: 2023-144 Owner: SPXS Country: US Constellation: starlink
LEOCIRCULAR

Starlink 30446について

説明を読み込み中...

リアルタイム位置

3D地球を読み込み中...

次回通過

高度履歴

Altitude vs Time

uPlot chart will show altitude changes over time

軌道要素

1 57872U 23144J 26035.51073993 .00000306 00000-0 37731-4 0 9990
2 57872 43.0036 94.6346 0001636 260.6538 99.4120 15.02533512132508
Epoch: Feb 4, 2026 • Age: 6 hours

現在のステータス

高度 558.3 km
速度 7.58 km/s
衛星直下点 6.36°N, 135.36°W
打ち上げ日 Sep 16, 2023
運用期間 2.3 years
タイプ internet

技術仕様

分類 Payload
質量 730.00 kg
乾燥質量 700.00 kg
総質量 730.00 kg
長さ 0.30 m
直径 4.10 m
スパン 29.00 m
形状 Box + pan
製造者 SPXS
バスタイプ Starlink V2M
フェーズステータス In Orbit
所有者/国 SPXS/US

大規模コンステレーション

Loading constellations...